• en France
  • Liste des pays
  • À 7 jours
  • Température de l'eau
  • Carte satellitaire
  • Carte météo
  • Widgets météo
  • user-avatar
    Se connecter

    Météo par heure à Darwin

    Ce jour, 16 Octobre, Mardi

    Heure Température Précipitation Vent Pression Humidité
    00:00 +31°C° 0 mm 2 m/s 758 mmHg 72%
    01:00 +31°C° 0 mm 2 m/s 757 mmHg 74%
    02:00 +30°C° 0 mm 2 m/s 757 mmHg 75%
    03:00 +30°C° 0 mm 2 m/s 757 mmHg 76%
    04:00 +30°C° 0 mm 2 m/s 757 mmHg 76%
    05:00 +30°C° 0 mm 2 m/s 757 mmHg 77%
    06:00 +30°C° 0 mm 2 m/s 757 mmHg 77%
    07:00 +31°C° 0 mm 2 m/s 758 mmHg 71%
    08:00 +32°C° 0 mm 2 m/s 758 mmHg 66%
    09:00 +35°C° 0 mm 3 m/s 758 mmHg 60%
    10:00 +36°C° 0.2 mm 3 m/s 758 mmHg 55%
    11:00 +37°C° 0.2 mm 3 m/s 758 mmHg 51%
    12:00 +38°C° 0.2 mm 3 m/s 757 mmHg 46%
    13:00 +38°C° 0.8 mm 3 m/s 757 mmHg 46%
    14:00 +38°C° 0.8 mm 3 m/s 756 mmHg 45%
    15:00 +38°C° 0.8 mm 3 m/s 756 mmHg 45%
    16:00 +36°C° 0.5 mm 3 m/s 756 mmHg 50%
    17:00 +35°C° 0.5 mm 3 m/s 756 mmHg 55%
    18:00 +34°C° 0.5 mm 3 m/s 756 mmHg 60%
    19:00 +33°C° 0.3 mm 3 m/s 756 mmHg 64%
    20:00 +33°C° 0.3 mm 3 m/s 757 mmHg 68%
    21:00 +31°C° 0.3 mm 3 m/s 757 mmHg 72%
    22:00 +31°C° 2.2 mm 3 m/s 757 mmHg 73%
    23:00 +30°C° 2.2 mm 2 m/s 758 mmHg 74%

    Demain, 17 Octobre, Mercredi

    Heure Température Précipitation Vent Pression Humidité
    00:00 +30°C° 2.2 mm 2 m/s 758 mmHg 75%
    01:00 +30°C° 0.5 mm 3 m/s 757 mmHg 76%
    02:00 +29°C° 0.5 mm 3 m/s 757 mmHg 77%
    03:00 +29°C° 0.5 mm 4 m/s 757 mmHg 79%
    04:00 +29°C° 0.1 mm 4 m/s 757 mmHg 79%
    05:00 +29°C° 0.1 mm 3 m/s 757 mmHg 79%
    06:00 +29°C° 0.1 mm 3 m/s 757 mmHg 79%
    07:00 +29°C° 0 mm 3 m/s 758 mmHg 76%
    08:00 +30°C° 0 mm 3 m/s 758 mmHg 73%
    09:00 +31°C° 0 mm 3 m/s 758 mmHg 70%
    10:00 +33°C° 0 mm 4 m/s 758 mmHg 62%
    11:00 +35°C° 0 mm 4 m/s 758 mmHg 53%
    12:00 +37°C° 0 mm 4 m/s 757 mmHg 45%
    13:00 +37°C° 0 mm 4 m/s 757 mmHg 43%
    14:00 +38°C° 0 mm 4 m/s 756 mmHg 40%
    15:00 +38°C° 0 mm 4 m/s 756 mmHg 38%
    16:00 +37°C° 0 mm 4 m/s 756 mmHg 41%
    17:00 +36°C° 0 mm 4 m/s 756 mmHg 44%
    18:00 +35°C° 0 mm 4 m/s 756 mmHg 48%
    19:00 +34°C° 0.4 mm 4 m/s 756 mmHg 53%
    20:00 +33°C° 0.4 mm 4 m/s 757 mmHg 59%
    21:00 +32°C° 0.4 mm 4 m/s 757 mmHg 65%
    22:00 +30°C° 0.8 mm 3 m/s 758 mmHg 69%
    23:00 +30°C° 0.8 mm 3 m/s 758 mmHg 73%

    Après-demain, 18 Octobre, Jeudi

    Heure Température Précipitation Vent Pression Humidité
    00:00 +29°C° 0.8 mm 2 m/s 758 mmHg 77%
    01:00 +29°C° 0.4 mm 2 m/s 758 mmHg 78%
    02:00 +29°C° 0.4 mm 1 m/s 757 mmHg 78%
    03:00 +28°C° 0.4 mm 1 m/s 757 mmHg 79%
    04:00 +29°C° 0 mm 1 m/s 757 mmHg 79%
    05:00 +29°C° 0 mm 1 m/s 758 mmHg 78%
    06:00 +29°C° 0 mm 1 m/s 758 mmHg 78%
    07:00 +30°C° 0 mm 1 m/s 758 mmHg 72%
    08:00 +31°C° 0 mm 1 m/s 759 mmHg 66%
    09:00 +32°C° 0 mm 1 m/s 759 mmHg 60%
    10:00 +34°C° 0 mm 1 m/s 759 mmHg 52%
    11:00 +36°C° 0 mm 1 m/s 758 mmHg 45%
    12:00 +40°C° 0 mm 2 m/s 758 mmHg 37%
    13:00 +39°C° 0 mm 2 m/s 757 mmHg 38%
    14:00 +39°C° 0 mm 3 m/s 757 mmHg 38%
    15:00 +40°C° 0 mm 4 m/s 756 mmHg 39%
    16:00 +37°C° 0 mm 4 m/s 756 mmHg 44%
    17:00 +36°C° 0 mm 4 m/s 756 mmHg 49%
    18:00 +34°C° 0 mm 4 m/s 756 mmHg 54%
    19:00 +34°C° 0 mm 4 m/s 757 mmHg 58%
    20:00 +33°C° 0 mm 3 m/s 758 mmHg 62%
    21:00 +31°C° 0 mm 3 m/s 758 mmHg 66%
    22:00 +31°C° 0.7 mm 3 m/s 759 mmHg 68%
    23:00 +30°C° 0.7 mm 2 m/s 759 mmHg 70%

    19 Octobre, Vendredi

    Heure Température Précipitation Vent Pression Humidité
    00:00 +30°C° 0.7 mm 2 m/s 759 mmHg 73%
    01:00 +30°C° 0.5 mm 2 m/s 758 mmHg 74%
    02:00 +29°C° 0.5 mm 2 m/s 758 mmHg 75%
    03:00 +29°C° 0.5 mm 1 m/s 758 mmHg 76%
    04:00 +29°C° 0.1 mm 1 m/s 758 mmHg 76%
    05:00 +29°C° 0.1 mm 1 m/s 758 mmHg 76%
    06:00 +27°C° 0.1 mm 0 m/s 759 mmHg 77%
    07:00 +29°C° 0.2 mm 0 m/s 759 mmHg 67%
    08:00 +33°C° 0.2 mm 1 m/s 759 mmHg 58%
    09:00 +35°C° 0.2 mm 1 m/s 760 mmHg 49%
    10:00 +37°C° 0 mm 1 m/s 759 mmHg 43%
    11:00 +40°C° 0 mm 2 m/s 759 mmHg 38%
    12:00 +42°C° 0 mm 2 m/s 758 mmHg 32%
    13:00 +42°C° 0 mm 3 m/s 757 mmHg 34%
    14:00 +40°C° 0 mm 3 m/s 757 mmHg 35%
    15:00 +40°C° 0 mm 4 m/s 756 mmHg 36%
    16:00 +38°C° 0 mm 4 m/s 756 mmHg 43%
    17:00 +36°C° 0 mm 5 m/s 756 mmHg 51%
    18:00 +34°C° 0 mm 5 m/s 757 mmHg 58%
    19:00 +34°C° 0 mm 5 m/s 757 mmHg 61%
    20:00 +33°C° 0 mm 5 m/s 758 mmHg 65%
    21:00 +33°C° 0 mm 4 m/s 759 mmHg 68%
    22:00 +32°C° 0.6 mm 4 m/s 759 mmHg 70%
    23:00 +31°C° 0.6 mm 3 m/s 759 mmHg 73%

    20 Octobre, Samedi

    Heure Température Précipitation Vent Pression Humidité
    00:00 +30°C° 0.6 mm 3 m/s 759 mmHg 75%
    01:00 +30°C° 0.7 mm 3 m/s 758 mmHg 76%
    02:00 +30°C° 0.7 mm 2 m/s 758 mmHg 76%
    03:00 +29°C° 0.7 mm 2 m/s 758 mmHg 76%
    04:00 +29°C° 0 mm 2 m/s 758 mmHg 77%
    05:00 +29°C° 0 mm 2 m/s 759 mmHg 77%
    06:00 +29°C° 0 mm 2 m/s 759 mmHg 78%
    07:00 +31°C° 0 mm 2 m/s 759 mmHg 69%
    08:00 +34°C° 0 mm 2 m/s 759 mmHg 61%
    09:00 +36°C° 0 mm 2 m/s 760 mmHg 52%
    10:00 +37°C° 0 mm 2 m/s 759 mmHg 47%
    11:00 +39°C° 0 mm 3 m/s 759 mmHg 42%
    12:00 +40°C° 0 mm 3 m/s 758 mmHg 36%
    13:00 +39°C° 0 mm 3 m/s 757 mmHg 39%
    14:00 +38°C° 0 mm 4 m/s 757 mmHg 43%
    15:00 +36°C° 0 mm 4 m/s 756 mmHg 46%
    16:00 +36°C° 0 mm 4 m/s 757 mmHg 50%
    17:00 +35°C° 0 mm 4 m/s 757 mmHg 53%
    18:00 +34°C° 0 mm 4 m/s 757 mmHg 57%
    19:00 +33°C° 0.1 mm 4 m/s 758 mmHg 61%
    20:00 +33°C° 0.1 mm 3 m/s 758 mmHg 64%
    21:00 +31°C° 0.1 mm 3 m/s 759 mmHg 67%
    22:00 +31°C° 0.1 mm 3 m/s 759 mmHg 69%
    23:00 +31°C° 0.1 mm 3 m/s 759 mmHg 71%

    21 Octobre, Dimanche

    Heure Température Précipitation Vent Pression Humidité
    00:00 +30°C° 0.1 mm 3 m/s 759 mmHg 73%
    01:00 +30°C° 0.6 mm 3 m/s 759 mmHg 75%
    02:00 +29°C° 0.6 mm 2 m/s 759 mmHg 76%
    03:00 +29°C° 0.6 mm 2 m/s 758 mmHg 78%
    04:00 +29°C° 0 mm 2 m/s 759 mmHg 78%
    05:00 +29°C° 0 mm 2 m/s 759 mmHg 78%
    06:00 +29°C° 0 mm 2 m/s 759 mmHg 79%
    07:00 +31°C° 0 mm 2 m/s 759 mmHg 70%
    08:00 +32°C° 0 mm 2 m/s 760 mmHg 61%
    09:00 +35°C° 0 mm 2 m/s 760 mmHg 52%
    10:00 +37°C° 0 mm 2 m/s 759 mmHg 46%
    11:00 +39°C° 0 mm 3 m/s 759 mmHg 39%
    12:00 +42°C° 0 mm 3 m/s 758 mmHg 33%
    13:00 +40°C° 0 mm 3 m/s 757 mmHg 34%
    14:00 +40°C° 0 mm 4 m/s 757 mmHg 35%
    15:00 +38°C° 0 mm 4 m/s 756 mmHg 37%
    16:00 +37°C° 0 mm 4 m/s 756 mmHg 42%
    17:00 +36°C° 0 mm 4 m/s 757 mmHg 47%
    18:00 +35°C° 0 mm 4 m/s 757 mmHg 51%
    19:00 +34°C° 0 mm 4 m/s 757 mmHg 56%
    20:00 +33°C° 0 mm 4 m/s 758 mmHg 60%
    21:00 +31°C° 0 mm 3 m/s 759 mmHg 64%
    22:00 +31°C° 0 mm 3 m/s 758 mmHg 66%
    23:00 +31°C° 0 mm 3 m/s 758 mmHg 68%
    Voir plus